Goshen, IN

5:52 PM EDT on March 25, 2017 (GMT -0400)
Goshen Municipal

Weather History for KGSH - October, 2012

Change the Weather History Date:

Tuesday, October 16, 2012

  Actual Average Record
Temperature  
Mean Temperature 48 °F -  
Max Temperature 64 °F 61 °F 85 °F (1956)
Min Temperature 32 °F 43 °F 27 °F (1991)
Degree Days  
Heating Degree Days 17    
Moisture  
Dew Point 36 °F    
Average Humidity 75    
Maximum Humidity 96    
Minimum Humidity 45    
Precipitation  
Precipitation 0.00 in - - ()
Sea Level Pressure  
Sea Level Pressure 29.90 in    
Wind  
Wind Speed 3 mph (SSE)    
Max Wind Speed 17 mph    
Max Gust Speed 23 mph    
Visibility 7 miles    
Events      
Averages and records for this station are not official NWS values.
T = Trace of Precipitation, MM = Missing Value Source: NWS Daily Summary

Daily Weather History Graph

Daily Weather History Graph

Search for Another Location

Airport or City:

Trip Planner

Search our weather history database for the weather conditions in past years. The results will help you decide how hot, cold, wet, or windy it might be!

Date:

Astronomy

Oct. 16, 2012 Rise Set
Actual Time 7:56 AM EDT 6:59 PM EDT
Civil Twilight 7:28 AM EDT 7:27 PM EDT
Nautical Twilight 6:56 AM EDT 7:59 PM EDT
Astronomical Twilight 6:24 AM EDT 8:31 PM EDT
Moon 9:20 AM EDT (10/16) 7:41 PM EDT (10/16)
Length of Visible Light 11h 58m
Length of Day
11h 02m
New Moon, 2% of the Moon is Illuminated
Oct 16
New Moon
Oct 21
First Quarter
Oct 29
Full
Nov 6
Last Quarter
Nov 13
New

Hourly Weather History & Observations

Time (EDT) Temp. Windchill Dew Point Humidity Pressure Visibility Wind Dir Wind Speed Gust Speed Precip Events Conditions
12:53 AM 36.0 °F - 34.0 °F 93% 30.00 in 5.0 mi Calm Calm - N/A   Clear
1:02 AM 37.4 °F - 35.6 °F 93% 29.98 in 4.0 mi Calm Calm - N/A   Partly Cloudy
1:05 AM 37.4 °F - 35.6 °F 93% 29.98 in 1.8 mi Calm Calm - N/A   Clear
1:15 AM 35.6 °F - 33.8 °F 93% 29.98 in 3.0 mi Calm Calm - N/A   Clear
1:53 AM 34.0 °F - 33.1 °F 96% 29.99 in 6.0 mi Calm Calm - N/A   Clear
2:53 AM 34.0 °F - 30.9 °F 89% 30.00 in 7.0 mi Calm Calm - N/A   Clear
3:00 AM 35.6 °F - 32.0 °F 87% 29.98 in 5.0 mi Calm Calm - N/A   Scattered Clouds
3:08 AM 33.8 °F - 32.0 °F 93% 29.98 in 2.0 mi Calm Calm - N/A   Mostly Cloudy
3:11 AM 33.8 °F - 32.0 °F 93% 29.98 in 0.8 mi Calm Calm - N/A   Mist
3:29 AM 33.8 °F - 32.0 °F 93% 29.98 in 1.2 mi Calm Calm - N/A   Scattered Clouds
3:53 AM 34.0 °F - 32.0 °F 92% 29.99 in 2.5 mi Calm Calm - N/A   Clear
4:05 AM 33.8 °F - 32.0 °F 93% 29.97 in 4.0 mi Calm Calm - N/A   Clear
4:53 AM 32.0 °F - 30.0 °F 92% 29.99 in 5.0 mi Calm Calm - N/A   Clear
5:53 AM 33.1 °F - 32.0 °F 96% 29.99 in 5.0 mi Calm Calm - N/A   Clear
6:36 AM 32.0 °F 28.7 °F 30.2 °F 93% 29.97 in 2.5 mi East 3.5 mph - N/A   Clear
6:44 AM 32.0 °F 28.7 °F 30.2 °F 93% 29.96 in 4.0 mi East 3.5 mph - N/A   Clear
6:53 AM 33.1 °F - 30.9 °F 92% 29.99 in 5.0 mi Calm Calm - N/A   Clear
8:53 AM 35.1 °F - 34.0 °F 96% 29.99 in 7.0 mi Calm Calm - N/A   Clear
9:53 AM 45.0 °F 40.6 °F 39.0 °F 80% 29.99 in 10.0 mi SSE 8.1 mph - N/A   Clear
10:53 AM 51.1 °F - 39.0 °F 63% 29.97 in 10.0 mi SSE 9.2 mph - N/A   Clear
11:53 AM 55.0 °F - 39.9 °F 57% 29.94 in 10.0 mi South 12.7 mph - N/A   Clear
12:53 PM 57.0 °F - 39.9 °F 53% 29.92 in 10.0 mi SSE 13.8 mph - N/A   Clear
1:53 PM 59.0 °F - 41.0 °F 51% 29.88 in 10.0 mi SSE 13.8 mph 23.0 mph N/A   Clear
2:53 PM 62.1 °F - 42.1 °F 48% 29.84 in 10.0 mi South 13.8 mph - N/A   Clear
3:53 PM 64.0 °F - 42.1 °F 45% 29.81 in 10.0 mi South 15.0 mph 21.9 mph N/A   Clear
4:53 PM 63.0 °F - 41.0 °F 45% 29.77 in 10.0 mi South 17.3 mph 23.0 mph N/A   Clear
5:53 PM 62.1 °F - 42.1 °F 48% 29.74 in 10.0 mi SSE 11.5 mph 19.6 mph N/A   Clear
6:53 PM 60.1 °F - 41.0 °F 49% 29.71 in 10.0 mi SSE 12.7 mph - N/A   Partly Cloudy
7:53 PM 59.0 °F - 42.1 °F 53% 29.70 in 10.0 mi SSE 11.5 mph - N/A   Partly Cloudy
8:53 PM 59.0 °F - 42.1 °F 53% 29.70 in 10.0 mi SSE 9.2 mph - N/A   Scattered Clouds
9:53 PM 57.9 °F - 41.0 °F 53% 29.68 in 10.0 mi SSE 11.5 mph - N/A   Partly Cloudy
10:53 PM 57.9 °F - 42.1 °F 56% 29.68 in 10.0 mi SSE 12.7 mph - N/A   Mostly Cloudy
11:53 PM 60.1 °F - 43.0 °F 53% 29.68 in 10.0 mi South 15.0 mph - N/A   Scattered Clouds